Location: Hradec Kralove
(50.2170°N, 15.8330°E)
Time: 13:29:35
(UTC+02:00)

Explorer 7 - Pass Details

Date: 04 February 2023
Orbit: 478 x 657 km, 50.3° (Epoch: 26 March)

Event Time Altitude Azimuth Distance (km) Brightness Sun altitude
Rises 12:23:11 0° 239° (WSW) 2,673 10.8 23.5°
Reaches altitude 10° 12:25:22 10° 235° (SW) 1,814 10.1 23.5°
Maximum altitude 12:29:25 56° 157° (SSE) 685 8.3 23.4°
Drops below altitude 10° 12:33:45 10° 80° (E) 1,935 9.5 23.4°
Sets 12:36:08 0° 76° (ENE) 2,871 10.3 23.3°
